Weather History for Charlotte, MI

Change the Weather History Date:

Friday, August 2, 2013

  Actual Average (KLAN) Record (KLAN)
Temperature  
Mean Temperature 62 °F 71 °F  
Max Temperature 70 °F 82 °F 100 °F (1964)
Min Temperature 53 °F 61 °F 40 °F (1927)
Degree Days  
Heating Degree Days 4 0  
Month to date heating degree days 0  
Since 1 June heating degree days 66  
Since 1 July heating degree days 11  
Cooling Degree Days 0 6  
Month to date cooling degree days 12  
Year to date cooling degree days 398  
Since 1 June cooling degree days 357  
Growing Degree Days 12 (Base 50)    
Moisture  
Dew Point 59 °F    
Average Humidity 87    
Maximum Humidity 96    
Minimum Humidity 77    
Precipitation  
Precipitation 0.01 in 0.10 in 0.86 in (1978)
Month to date precipitation 0.20  
Year to date precipitation 18.06  
Snow  
Snow 0.00 in 0.00 in 0.00 in ()
Month to date snowfall 0.0  
Since 1 June snowfall 0.0  
Since 1 July snowfall 0.0  
Snow Depth -    
Sea Level Pressure  
Sea Level Pressure 29.90 in    
Wind  
Wind Speed 4 mph (SW)    
Max Wind Speed 16 mph    
Max Gust Speed 25 mph    
Visibility 10 miles    
Events      
T = Trace of Precipitation, MM = Missing Value Source: NWS Daily Summary

Daily Weather History Graph

Daily Weather History Graph

Search for Another Location

Airport:

Trip Planner

Search our weather history database for the weather conditions in past years. The results will help you decide how hot, cold, wet, or windy it might be!

Date:

Astronomy

Aug. 02, 2013 Rise Set
Actual Time 6:32 AM EDT 8:57 PM EDT
Civil Twilight 6:00 AM EDT 9:29 PM EDT
Nautical Twilight 5:21 AM EDT 10:08 PM EDT
Astronomical Twilight 4:36 AM EDT 10:52 PM EDT
Moon 2:51 AM EDT (8/2) 5:55 PM EDT (8/2)
Length of Visible Light 15h 28m
Length of Day
14h 25m
Waning Crescent, 16% of the Moon is Illuminated
Aug 2
Waning Crescent
Aug 6
New
Aug 14
First Quarter
Aug 20
Full
Aug 28
Last Quarter

Hourly Weather History & Observations

Time (EDT) Temp. Dew Point Humidity Pressure Visibility Wind Dir Wind Speed Gust Speed Precip Events Conditions
12:15 AM 59.4 °F 53.6 °F 81% 29.95 in 10.0 mi Calm Calm - N/A   Clear
12:35 AM 58.5 °F 53.4 °F 83% 29.95 in 10.0 mi WSW 3.5 mph - N/A   Clear
12:55 AM 58.6 °F 53.6 °F 83% 29.94 in 10.0 mi Calm Calm - N/A   Clear
1:15 AM 57.9 °F 53.8 °F 86% 29.94 in 10.0 mi Calm Calm - N/A   Clear
1:35 AM 55.4 °F 52.7 °F 91% 29.94 in 10.0 mi South 3.5 mph - N/A   Clear
1:55 AM 56.8 °F 53.6 °F 89% 29.94 in 10.0 mi Calm Calm - N/A   Clear
2:15 AM 55.4 °F 52.7 °F 91% 29.92 in 10.0 mi Calm Calm - N/A   Clear
2:35 AM 53.8 °F 52.7 °F 96% 29.91 in 10.0 mi Calm Calm - N/A   Clear
2:55 AM 54.0 °F 51.8 °F 92% 29.91 in 10.0 mi Calm Calm - N/A   Clear
3:15 AM 54.0 °F 52.9 °F 96% 29.91 in 10.0 mi Calm Calm - N/A   Clear
3:35 AM 54.5 °F 52.9 °F 94% 29.91 in 10.0 mi South 3.5 mph - N/A   Clear
3:55 AM 54.3 °F 52.9 °F 95% 29.90 in 10.0 mi South 3.5 mph - N/A   Clear
4:15 AM 53.6 °F 52.3 °F 95% 29.90 in 10.0 mi SSW 3.5 mph - N/A   Clear
4:35 AM 55.0 °F 53.1 °F 93% 29.91 in 10.0 mi SSW 4.6 mph - N/A   Clear
4:55 AM 55.4 °F 53.2 °F 92% 29.91 in 10.0 mi South 3.5 mph - N/A   Clear
5:15 AM 54.5 °F 53.1 °F 95% 29.91 in 10.0 mi South 3.5 mph - N/A   Clear
5:35 AM 54.0 °F 52.7 °F 95% 29.91 in 10.0 mi Calm Calm - N/A   Clear
5:55 AM 55.0 °F 53.1 °F 93% 29.92 in 10.0 mi SSW 4.6 mph - N/A   Clear
6:15 AM 55.2 °F 53.1 °F 92% 29.93 in 10.0 mi SSW 4.6 mph - N/A   Clear
6:35 AM 56.1 °F 53.6 °F 91% 29.92 in 10.0 mi SSW 3.5 mph - N/A   Scattered Clouds
6:55 AM 56.5 °F 53.8 °F 91% 29.93 in 10.0 mi SSW 3.5 mph - N/A   Mostly Cloudy
7:15 AM 57.6 °F 54.5 °F 90% 29.91 in 10.0 mi South 4.6 mph - N/A   Overcast
7:35 AM 58.3 °F 54.9 °F 88% 29.91 in 10.0 mi SSW 4.6 mph - N/A   Overcast
7:55 AM 58.8 °F 54.9 °F 87% 29.91 in 10.0 mi South 4.6 mph - N/A   Mostly Cloudy
8:15 AM 59.9 °F 55.8 °F 86% 29.92 in 10.0 mi South 3.5 mph - N/A   Mostly Cloudy
8:35 AM 60.3 °F 55.8 °F 85% 29.93 in 10.0 mi SSW 5.8 mph - N/A   Mostly Cloudy
8:55 AM 59.9 °F 55.8 °F 86% 29.91 in 10.0 mi SSW 8.1 mph - N/A   Overcast
9:15 AM 60.8 °F 56.3 °F 85% 29.91 in 10.0 mi SSW 5.8 mph - N/A   Light Drizzle
9:35 AM 61.9 °F 57.4 °F 85% 29.92 in 10.0 mi SW 8.1 mph - N/A   Overcast
9:55 AM 62.1 °F 58.1 °F 87% 29.93 in 10.0 mi SW 11.5 mph 18.4 mph N/A   Overcast
10:15 AM 61.7 °F 59.2 °F 91% 29.91 in 7.0 mi SW 6.9 mph - N/A   Mostly Cloudy
10:35 AM 63.9 °F 59.7 °F 86% 29.92 in 10.0 mi SSW 9.2 mph - N/A   Scattered Clouds
10:55 AM 64.4 °F 60.4 °F 87% 29.90 in 10.0 mi SSW 11.5 mph 17.3 mph N/A   Mostly Cloudy
11:15 AM 65.3 °F 60.4 °F 84% 29.91 in 10.0 mi SW 15.0 mph 23.0 mph N/A   Mostly Cloudy
11:35 AM 66.4 °F 60.1 °F 80% 29.91 in 10.0 mi SSW 13.8 mph 18.4 mph N/A   Mostly Cloudy
11:55 AM 66.6 °F 59.7 °F 79% 29.91 in 10.0 mi SSW 15.0 mph 18.4 mph N/A   Overcast
12:15 PM 66.7 °F 60.4 °F 80% 29.91 in 10.0 mi South 11.5 mph 17.3 mph N/A   Overcast
12:35 PM 67.8 °F 61.0 °F 79% 29.91 in 10.0 mi SSW 12.7 mph 20.7 mph N/A   Overcast
12:55 PM 68.0 °F 61.5 °F 80% 29.90 in 10.0 mi SSW 12.7 mph 19.6 mph N/A   Overcast
1:15 PM 68.0 °F 61.5 °F 80% 29.90 in 10.0 mi SSW 13.8 mph 17.3 mph N/A   Overcast
1:35 PM 68.0 °F 61.0 °F 78% 29.89 in 10.0 mi SSW 15.0 mph 25.3 mph N/A   Overcast
1:55 PM 68.9 °F 61.3 °F 77% 29.88 in 10.0 mi SSW 16.1 mph 21.9 mph N/A   Overcast
2:15 PM 67.1 °F 61.2 °F 81% 29.89 in 10.0 mi SSW 13.8 mph 18.4 mph N/A   Overcast
2:35 PM 67.5 °F 61.7 °F 82% 29.89 in 10.0 mi SSW 13.8 mph 18.4 mph N/A   Overcast
2:55 PM 67.1 °F 61.7 °F 83% 29.88 in 10.0 mi SSW 11.5 mph 16.1 mph N/A   Overcast
3:15 PM 67.3 °F 61.9 °F 83% 29.89 in 10.0 mi SSW 12.7 mph - N/A   Overcast
3:35 PM 67.6 °F 62.1 °F 82% 29.88 in 10.0 mi SW 10.4 mph - N/A   Overcast
3:55 PM 68.2 °F 62.6 °F 82% 29.89 in 10.0 mi WSW 10.4 mph 16.1 mph N/A   Overcast
4:15 PM 68.0 °F 63.0 °F 84% 29.88 in 10.0 mi SSW 8.1 mph - N/A   Overcast
4:35 PM 68.4 °F 63.3 °F 84% 29.87 in 10.0 mi SW 8.1 mph - N/A   Overcast
4:55 PM 68.4 °F 63.5 °F 84% 29.87 in 10.0 mi WSW 6.9 mph - N/A   Overcast
5:15 PM 68.5 °F 63.9 °F 85% 29.86 in 10.0 mi WSW 5.8 mph - N/A   Overcast
5:35 PM 69.1 °F 63.9 °F 83% 29.86 in 10.0 mi SW 5.8 mph - N/A   Overcast
5:55 PM 70.0 °F 64.6 °F 83% 29.85 in 10.0 mi WSW 4.6 mph - N/A   Overcast
6:15 PM 70.3 °F 64.8 °F 82% 29.85 in 10.0 mi SW 5.8 mph - N/A   Scattered Clouds
6:35 PM 70.7 °F 64.9 °F 82% 29.86 in 10.0 mi West 5.8 mph - N/A   Scattered Clouds
6:55 PM 70.3 °F 64.6 °F 82% 29.86 in 10.0 mi West 6.9 mph - N/A   Scattered Clouds
7:15 PM 70.2 °F 64.8 °F 83% 29.86 in 10.0 mi WSW 3.5 mph - N/A   Scattered Clouds
7:35 PM 70.2 °F 64.9 °F 83% 29.87 in 10.0 mi WSW 4.6 mph - N/A   Clear
7:55 PM 69.8 °F 64.9 °F 84% 29.87 in 10.0 mi WSW 4.6 mph - N/A   Clear
8:15 PM 69.3 °F 64.8 °F 86% 29.88 in 10.0 mi West 3.5 mph - N/A   Clear
8:35 PM 68.5 °F 64.4 °F 87% 29.88 in 10.0 mi West 3.5 mph - N/A   Clear
8:55 PM 67.8 °F 64.0 °F 88% 29.89 in 10.0 mi West 3.5 mph - N/A   Clear
9:15 PM 67.1 °F 63.9 °F 89% 29.89 in 7.0 mi Calm Calm - N/A   Clear
9:35 PM 66.7 °F 63.9 °F 90% 29.90 in 10.0 mi Calm Calm - N/A   Clear
9:55 PM 66.4 °F 63.9 °F 92% 29.91 in 7.0 mi West 3.5 mph - N/A   Clear
10:15 PM 66.2 °F 63.9 °F 92% 29.91 in 7.0 mi WNW 3.5 mph - N/A   Clear
10:35 PM 66.2 °F 63.9 °F 92% 29.91 in 7.0 mi Calm Calm - N/A   Clear
10:55 PM 66.2 °F 63.9 °F 92% 29.92 in 7.0 mi WNW 4.6 mph - N/A   Clear
11:15 PM 66.2 °F 63.7 °F 92% 29.92 in 7.0 mi West 3.5 mph - N/A   Clear
11:35 PM 65.7 °F 63.5 °F 93% 29.91 in 7.0 mi WNW 3.5 mph - N/A   Clear
11:55 PM 65.3 °F 63.5 °F 94% 29.92 in 7.0 mi NW 3.5 mph - N/A   Clear